Harlingen, TX

8:55 PM CST on November 20, 2017 (GMT -0600)
Valley International

Weather History for KHRL - November, 2012

Change the Weather History Date:

Monday, November 19, 2012

  Actual Average Record
Temperature  
Mean Temperature 70 °F 67 °F  
Max Temperature 82 °F 79 °F 92 °F (2011)
Min Temperature 58 °F 56 °F 35 °F (1925)
Degree Days  
Heating Degree Days 0 2  
Month to date heating degree days 1 19  
Since 1 July heating degree days 5 22  
Cooling Degree Days 5 5  
Month to date cooling degree days 140 119  
Year to date cooling degree days 4667 3895  
Growing Degree Days 20 (Base 50)    
Moisture  
Dew Point 57 °F    
Average Humidity 66    
Maximum Humidity 87    
Minimum Humidity 45    
Precipitation  
Precipitation 0.00 in 0.03 in 1.25 in (1976)
Month to date precipitation 0.03 1.14  
Year to date precipitation 13.27 23.56  
Sea Level Pressure  
Sea Level Pressure 30.17 in    
Wind  
Wind Speed 6 mph (East)    
Max Wind Speed 16 mph    
Max Gust Speed 20 mph    
Visibility 10 miles    
Events      
T = Trace of Precipitation, MM = Missing Value Source: NWS Daily Summary

Daily Weather History Graph

Daily Weather History Graph

Search for Another Location

Airport or City:

Trip Planner

Search our weather history database for the weather conditions in past years. The results will help you decide how hot, cold, wet, or windy it might be!

Date:

Astronomy

Nov. 19, 2012 Rise Set
Actual Time 6:52 AM CST 5:39 PM CST
Civil Twilight 6:27 AM CST 6:04 PM CST
Nautical Twilight 5:59 AM CST 6:32 PM CST
Astronomical Twilight 5:32 AM CST 6:59 PM CST
Moon 12:08 PM CST (11/19) 11:52 PM CST (11/19)
Length of Visible Light 11h 36m
Length of Day
10h 46m
Waxing Crescent, 41% of the Moon is Illuminated
Nov 19
Waxing Crescent
Nov 20
First Quarter
Nov 28
Full
Dec 6
Last Quarter
Dec 13
New

Hourly Weather History & Observations

Time (CST) Temp. Heat Index Dew Point Humidity Pressure Visibility Wind Dir Wind Speed Gust Speed Precip Events Conditions
12:52 AM 60.1 °F - 54.0 °F 80% 30.18 in 10.0 mi East 5.8 mph - N/A   Clear
1:52 AM 62.1 °F - 54.0 °F 75% 30.19 in 10.0 mi Calm Calm - N/A   Mostly Cloudy
2:52 AM 60.1 °F - 54.0 °F 80% 30.17 in 10.0 mi East 3.5 mph - N/A   Scattered Clouds
3:52 AM 60.1 °F - 54.0 °F 80% 30.16 in 10.0 mi East 3.5 mph - N/A   Clear
4:52 AM 59.0 °F - 54.0 °F 83% 30.15 in 10.0 mi East 5.8 mph - N/A   Clear
5:52 AM 59.0 °F - 55.0 °F 87% 30.16 in 10.0 mi East 4.6 mph - N/A   Mostly Cloudy
6:52 AM 60.1 °F - 55.9 °F 86% 30.17 in 10.0 mi East 5.8 mph - N/A   Scattered Clouds
7:52 AM 64.9 °F - 59.0 °F 81% 30.19 in 10.0 mi East 4.6 mph - N/A   Mostly Cloudy
8:52 AM 71.1 °F - 59.0 °F 66% 30.21 in 10.0 mi ESE 5.8 mph - N/A   Overcast
9:52 AM 75.9 °F - 59.0 °F 56% 30.22 in 10.0 mi East 10.4 mph - N/A   Partly Cloudy
10:52 AM 78.1 °F - 59.0 °F 52% 30.21 in 10.0 mi ESE 8.1 mph - N/A   Overcast
11:52 AM 80.1 °F 80.6 °F 57.9 °F 47% 30.19 in 10.0 mi Variable 4.6 mph - N/A   Scattered Clouds
12:52 PM 79.0 °F - 57.9 °F 48% 30.16 in 10.0 mi Variable 4.6 mph - N/A   Overcast
1:52 PM 79.0 °F - 59.0 °F 50% 30.13 in 10.0 mi ENE 8.1 mph - N/A   Overcast
2:52 PM 79.0 °F - 59.0 °F 50% 30.12 in 10.0 mi East 12.7 mph - N/A   Clear
3:52 PM 80.1 °F 80.6 °F 57.9 °F 47% 30.11 in 10.0 mi East 11.5 mph 19.6 mph N/A   Partly Cloudy
4:52 PM 75.9 °F - 57.0 °F 52% 30.12 in 10.0 mi East 13.8 mph - N/A   Clear
5:52 PM 72.0 °F - 57.0 °F 59% 30.14 in 10.0 mi ESE 11.5 mph - N/A   Clear
6:52 PM 69.1 °F - 57.0 °F 65% 30.15 in 10.0 mi ESE 8.1 mph - N/A   Clear
7:52 PM 66.0 °F - 57.0 °F 73% 30.17 in 10.0 mi ESE 4.6 mph - N/A   Clear
8:52 PM 64.0 °F - 55.9 °F 75% 30.18 in 10.0 mi East 4.6 mph - N/A   Clear
9:52 PM 63.0 °F - 55.9 °F 78% 30.17 in 10.0 mi Calm Calm - N/A   Clear
10:52 PM 61.0 °F - 55.9 °F 83% 30.17 in 10.0 mi Calm Calm - N/A   Clear
11:52 PM 62.1 °F - 57.9 °F 86% 30.16 in 10.0 mi Calm Calm - N/A   Clear